カタログに戻る

STARLINK-36123

運用中通信VLEO
NORAD 67007·PAYLOAD·🇺🇸 United States

打ち上げ Dec 10, 2025 から Vandenberg Space Force Base

Loading…

次のパス (今後24時間)

TLE

最新Source: CelesTrak SupGP

元期: Sep 15, 2026, 03:41 UTC

1 67007C 25293E   26258.15395833  .00049018  00000+0  41091-2 0  2587
2 67007  70.0018 336.6494 0003325 266.1570 332.8498 14.98293829    16

AllMySatでSTARLINK-36123をリアルタイム追跡

Download on the App Store